Location: Daerah Kuala Lumpur
(3.1167°N, 101.6833°E)
Time: 18:52:11
(UTC+00:00)

Cosmos 405 Rocket - Pass Details

Date: 05 August 2024
Orbit: 447 x 491 km, 81.3° (Epoch: 18 September)

Event Time Altitude Azimuth Distance (km) Brightness Sun altitude
Rises 10:19:26 0° 351° (N) 2,432 6.5 15.2°
Reaches altitude 10° 10:21:30 10° 348° (NNW) 1,564 5.6 14.7°
Drops below altitude 10° 10:28:18 10° 181° (S) 1,579 5.1 13.1°
Enters shadow 10:46:20 -38° 173° (S) 8,641 8.6 8.8°
Exits shadow 11:07:47 -79° 139° (SE) 13,027 9.6 3.6°
Maximum altitude 22:12:40 71° 96° (E) 527 2.8 -15.0°
